Weather Service Report


863 
FPUS83 KFGF 090131
OPUFGF
PRAIRIE TO PINES WEATHER ROUNDUP
NATIONAL WEATHER SERVICE EASTERN NORTH DAKOTA/GRAND FORKS ND
700 PM CST THU DEC 08 2016

 **SATELLITE DATA USED TO AUGMENT SKY COVER AT AUTOMATED STATIONS**
 *****  WEATHER ACROSS EASTERN NORTH DAKOTA  *****
  
CITY           SKY/WX    TMP DP  RH WIND       PRES   REMARKS
GRAND FORKS    FLURRIES  10   4  76 NW9       30.59S WCI  -3          
GRAND FORKS AF CLOUDY    10   3  72 NW10      30.59S WCI  -3          
GRAND CITY NWS NOT AVBL                                               
BUXTON           N/A     33  31  92 W8          N/A                   
DEVILS LAKE    CLOUDY     0  -5  79 NW14      30.57F WCI -19          
FARGO          FLURRIES   8   1  73 NW14      30.59S WCI  -8          
WAHPETON ARPT  CLOUDY     7   1  78 NW17      30.60S WCI -12          
$$

 *****  WEATHER ACROSS CENTRAL AND WESTERN NORTH DAKOTA  *****
  
CITY           SKY/WX    TMP DP  RH WIND       PRES   REMARKS
JAMESTOWN      CLEAR     -2  -7  79 NW14      30.59S WCI -21          
BISMARCK       PTCLDY     0  -7  72 W8        30.62F WCI -14          
MINOT          CLOUDY     0  -7  72 W12       30.58F WCI -17          
MINOT AFB      PTCLDY    -3  -8  76 NW12      30.58F WCI -20          
GARRISON         N/A     -6 -12  75 NW12      30.58F WCI -25          
WILLISTON      CLOUDY    -8 -14  74 NW3       30.61F                  
DICKINSON      CLOUDY    -9 -14  78 NW10      30.50F WCI -27          
HETTINGER      CLOUDY    -9 -13  83 W6        30.52F WCI -22          
$$

 *****  OTHER OBSERVATIONS NORTHEAST NORTH DAKOTA  *****
  
CITY           SKY/WX    TMP DP  RH WIND       PRES   REMARKS
WALHALLA         N/A      9   9 100 N9        30.59S WCI  -5          
LANGDON        MOCLDY     5   0  78 NW15      30.53S WCI -13          
CAVALIER         N/A      9   5  85 N9        30.59S WCI  -5          
GRAFTON        FLURRIES  10   5  79 NW12      30.61S WCI  -4          
CANDO          MOCLDY     0  -6  78 NW9       30.59F WCI -16          
FORT TOTTEN      N/A      0  -3  85 NW7       29.95S WCI -13          
ROLLA          CLOUDY     1  -2  85 NW14      30.53S WCI -17          
RUGBY            N/A     -4  -9  77 W6        30.58F WCI -16          
 ***** THE ABOVE OBSERVATIONS ARE NON NWS ARE NOT QUALITY
        CONTROLLED AND MAY MIS-REPORT RAIN FOR SNOW...
$$

 *****  OTHER OBSERVATIONS SOUTHEAST NORTH DAKOTA *****
  
CITY           SKY/WX    TMP DP  RH WIND       PRES   REMARKS
COOPERSTOWN    CLOUDY     1  -4  78 W14       30.57S WCI -17          
VALLEY CITY    CLOUDY     0  -4  85 NW18      30.60R WCI -22          
OAKES          NOT AVBL                                               
GWINNER        FAIR       5   0  78 NW15G21   30.60R WCI -13          
SHEYENNE NWR     N/A      3  -4  70 NW9       29.95S WCI -12          
BUFFALO          N/A      1  -5  76 NW10        N/A  WCI -15          
WYNDMERE         N/A      5   0  78 W13         N/A  WCI -12          
 ***** THE ABOVE OBSERVATIONS ARE NON NWS ARE NOT QUALITY
       CONTROLLED AND MAY MIS-REPORT RAIN FOR SNOW...
$$

  *****  WEATHER ACROSS NORTHERN MINNESOTA  *****     
  
CITY           SKY/WX    TMP DP  RH WIND       PRES   REMARKS
FLAG ISLAND    CLOUDY    10   7  85 W20       30.47S WCI  -8          
WARROAD        FLURRIES  10   7  85 NW7       30.50S WCI   0          
ROSEAU         CLOUDY     9   1  72 NW9       30.51S WCI  -5          
HALLOCK        MOCLDY     7   1  78 N8        30.58S WCI  -6          
THF RVR FALLS  FLURRIES  10   7  87 NW12      30.53S WCI  -5          
HALSTAD          N/A     11   5  78 NW12        N/A  WCI  -4          
FOSSTON        LGT SNOW   9   7  92 W7        30.51S WCI  -3          
BAUDETTE       LGT SNOW  15  10  80 NW12      30.45S WCI   2          
WASKISH        CLOUDY    16  12  86 NW13G18   30.46S WCI   2          
CROOKSTON      CLOUDY     9   7  92 N13       30.58R WCI  -7          
$$
  *****  WEATHER ACROSS CENTRAL AND WEST MINNESOTA  *****     
  
CITY           SKY/WX    TMP DP  RH WIND       PRES   REMARKS
BEMIDJI        FLURRIES  13  10  86 NW9       30.46S WCI   1          
PARK RAPIDS    PTCLDY     5   0  79 NW9       30.46R WCI  -9          
WADENA         FLURRIES  10   7  85 W8        30.49R WCI  -1          
DETROIT LAKES  LGT SNOW  12  10  92 NW12G17   30.52R WCI  -2          
MOORHEAD       MIX PCPN   9   5  85 NW14      30.58S WCI  -8          
FERGUS FALLS   LGT SNOW   7   3  85 NW12      30.61R WCI  -9          
ELBOW LAKE     FLURRIES   9   6  87 W14       30.55S WCI  -8          
MORRIS MN      FLURRIES   9   5  85 NW13      30.55S WCI  -7          
STAPLES        PTCLDY     9   7  92 W8        30.48S WCI  -4          
WHEATON        CLOUDY    10   7  85 W12       30.61S WCI  -4          
$$
  *****  WEATHER ELSEWHERE ACROSS MINNESOTA  *****     
  
CITY           SKY/WX    TMP DP  RH WIND       PRES   REMARKS
DULUTH         FLURRIES  19  10  68 NW10G21   30.35R WCI   7          
INTRNTL FALLS  FLURRIES  14   8  77 NW10      30.42S WCI   1          
ELY            CLEAR     12   9  85 NW6       30.36R WCI   3          
CLOQUET        CLOUDY    19   9  63 NW9       30.38R WCI   9          
BRAINERD       MOCLDY    17  12  80 NW9       30.46R WCI   6          
HIBBING        LGT SNOW  15   9  76 NW18      30.39R WCI  -2          
ALEXANDRIA     CLOUDY    12   8  84 NW15      30.50S WCI  -4          
SAINT CLOUD    MOCLDY    16  10  77 NW10      30.48R WCI   4          
MINNEAPOLIS    FLURRIES  21  11  65 NW12      30.47S WCI   9          
$$

  *****  WEATHER ACROSS SOUTH DAKOTA  *****
  
CITY           SKY/WX    TMP DP  RH WIND       PRES   REMARKS
SIOUX FALLS    CLEAR     12   6  77 NW10      30.59R WCI  -1          
BROOKINGS      CLEAR      7   4  87 NW13      30.55S WCI  -9          
WATERTOWN      CLEAR      7   2  80 NW14      30.55R WCI -10          
HURON          CLEAR      5   1  83 NW12      30.64S WCI -11          
SISSETON         N/A      6   0  76 NW14      30.59R WCI -11          
ABERDEEN       CLEAR      3  -3  76 NW7       30.64S WCI  -9          
MITCHELL       CLEAR      8   3  80 NW9       30.66R WCI  -5          
PIERRE         CLOUDY     5  -1  76 N8        30.62S WCI  -8          
MOBRIDGE       CLOUDY     2  -6  69 NW13      30.58F WCI -15          
RAPID CITY     CLOUDY    -2  -8  76 CALM      30.47F                  
$$

  *****  SOME WEATHER IN NEARBY STATES *****
  
CITY           SKY/WX    TMP DP  RH WIND       PRES   REMARKS
GLASGOW MT     CLEAR     -4  -9  79 NE7       30.54F WCI -18          
GREAT FALLS MT CLOUDY    -6 -10  83 CALM      30.35F                  
CHEYENNE WY    CLOUDY     3   0  87 S10       30.19F WCI -12          
SCOTTSBLUFF NE CLOUDY     7  -2  66 E8        30.37F WCI  -6          
OMAHA NE       CLEAR     17   7  64 NW8       30.64R WCI   7          
DES MOINES IA  CLEAR     21  10  62 NW14      30.56R WCI   8          
DAVENPORT IA   FLURRIES  21  16  81 W15       30.48R WCI   8          
CHICAGO IL     FLURRIES  23  15  71 NW14      30.38R WCI  11          
EAU CLAIRE WI  FLURRIES  23  17  78 W9        30.39R WCI  13          
LA CROSSE WI   CLOUDY    26  16  65 NW14      30.43R WCI  14          
$$

  *****  SOME NATIONAL WEATHER *****
  
CITY           SKY/WX    TMP DP  RH WIND       PRES   REMARKS
LA GUARDIA NY  PTCLDY    41  18  39 W18G28    29.95S                  
RALEIGH NC     MOCLDY    41  22  46 CALM      30.19S                  
ATLANTA GA     PTCLDY    38  21  50 NW7       30.33R                  
NEW ORLEANS LA CLOUDY    52  35  52 N13G24    30.41R                  
OKLAHOMA CITY  CLOUDY    29   8  41 N13       30.64R WCI  19          
ALBUQUERQUE NM PTCLDY    36  16  44 CALM      30.34R                  
SALT LAKE CITY CLOUDY    26  22  84 N10       30.15S WCI  16          
LOS ANGELES CA PTCLDY    59  52  77 W9        30.21F                  
BOISE ID       LGT SNOW  26  22  84 SE13      30.07F FOG     WCI  15  
SEATTLE WA     CLOUDY    35  13  40 E15G21    29.93F                  
$$

*** WEATHER ACROSS MANITOBA...SASKATCHEWAN AND ONTARIO ***
                ***ONTARIO***
  
CITY           SKY/WX    TMP DP  RH WIND       PRES   REMARKS
GERALDTON      FLURRIES  12   9  85 NW10      30.21R WCI  -1          
THUNDER BAY    FLURRIES  18  10  73 NW12      30.32R WCI   5          
SIOUX LOOKOUT  FLURRIES  10   7  85 N8        30.38R WCI  -1          
TORONTO        SNOWSHWR  28  23  80 W16G28    29.96R DRFTSNOWWCI  17  
BIG TROUT LK   FLURRIES   7   1  78 NW14G20   30.37R WCI -10          
PICKLE LAKE    FLURRIES   5   1  85 NW7       30.34R WCI  -7          
DRYDEN         FLURRIES  10   9  92 NW6       30.39R WCI   1          
KENORA         FLURRIES   9   3  78 NW13G18   30.44S WCI  -7          
$$      
                *** MANITOBA***
  
CITY           SKY/WX    TMP DP  RH WIND       PRES   REMARKS
BRANDON        CLEAR     -4  -9  77 W12       30.57F WCI -22          
DAUPHIN        FLURRIES   0  -4  85 NE6       30.61F WCI -12          
ISLAND LAKE    NOT AVBL                                               
PILOT MOUND      N/A      3   0  85 NW8         N/A  WCI -10          
THE PAS        CLOUDY    -2  -9  71 N13       30.64F WCI -21          
THOMPSON       PTCLDY   -15 -22  70 NW7       30.61  WCI -31          
WINNIPEG       CLOUDY     5  -2  72 N14       30.59F WCI -12          
LYNN LAKE      CLEAR    -17 -22  76 NW9       30.64F WCI -36          
CHURCHILL      FLURRIES  -6  -9  84 NW22G29   30.56R WCI -31          
GILLAM         CLEAR    -13 -18  77 NW12      30.57F WCI -33          
$$
                ***SASKATCHEWAN***
  
CITY           SKY/WX    TMP DP  RH WIND       PRES   REMARKS
ESTEVAN        FLURRIES  -9 -15  77 W10       30.58F WCI -28          
KINDERSLEY     CLOUDY    -9 -15  77 N6        30.57F WCI -23          
LLOYDMINSTER   MOCLDY   -13 -18  77 NW3       30.60F                  
PRINCE ALBERT  PTCLDY   -13 -18  77 NW5       30.67F WCI -25          
REGINA         PTCLDY    -8 -13  77 NW8       30.58F WCI -23          
YORKTON        CLEAR     -8 -13  77 NW8       30.57S WCC1F1C2F2C3F3C4F4C5F5C6F6C7F7C8F8C9F9CaFaCbFbCcFcCdFdCe!

Return to Home page


Western Regional Climate Center, wrcc@dri.edu